RH
9 9 9 10 11 11 13 13 11 10 10 10 10 11 11 11 10 11 12 12 14 15 18 23 25 17 11 13 13 12 13 16 17 20 30 35 32 36 49 60 63 64 64 60 56 52 44 34 23 14 9 7 6 6 6 6 6 5 4 3 3 4 6 9 11 11 10 10 10 11 11 10 8 8 6 4 4 4 4 4 4 5 6 8 9
11 10 10 11 12 12 13 13 11 10 9 8 9 9 9 9 9 10 11 10 12 14 17 21 19 13 11 12 12 13 13 17 20 21 31 38 36 37 47 58 62 64 66 64 59 55 50 39 25 14 9 7 7 6 6 6 6 5 4 4 3 4 6 9 11 11 11 11 10 11 10 10 9 7 6 4 4 3 4 4 4 5 6 8 9
12 10 12 12 12 12 12 11 11 10 8 8 7 8 9 9 10 11 11 9 11 13 15 17 12 9 10 12 14 16 15 17 22 24 30 39 43 44 47 55 62 65 66 64 61 58 54 45 29 16 10 8 7 6 6 6 7 6 5 4 3 4 6 9 11 11 11 11 10 11 10 9 8 8 6 4 4 3 4 4 5 5 7 8 9
12 13 15 14 13 11 10 10 10 9 8 7 7 8 8 9 10 12 11 10 11 12 14 13 8 8 10 13 16 17 18 19 25 31 35 42 48 50 51 54 62 65 64 62 62 61 58 51 35 20 11 8 7 6 6 6 7 6 5 4 4 3 6 9 11 12 11 11 11 10 10 9 8 7 6 4 4 3 4 4 5 6 7 8 9
16 17 17 17 15 12 11 10 9 9 8 8 8 8 8 9 10 11 11 9 11 12 12 10 7 8 10 13 17 19 21 23 28 38 46 53 57 58 56 55 61 64 62 61 64 65 62 57 43 25 13 8 7 6 6 6 7 7 5 5 4 4 5 9 12 13 12 11 11 10 10 9 8 7 6 4 4 3 4 4 5 6 8 8 9
19 19 19 19 17 14 12 10 9 8 9 10 9 8 8 8 8 9 9 7 9 11 10 8 6 6 9 12 17 22 25 27 32 44 55 59 62 64 63 60 62 67 65 59 62 66 65 61 49 30 15 8 7 6 6 6 7 7 6 5 5 4 5 9 12 13 13 12 11 10 10 9 7 7 5 5 4 3 4 4 6 6 8 8 8
19 19 19 18 18 16 11 9 8 8 10 10 9 8 7 7 7 7 7 7 7 9 9 6 5 5 8 11 15 22 27 30 35 48 58 58 57 57 62 65 65 68 71 63 56 62 64 62 54 35 17 9 8 7 6 6 7 7 6 5 5 5 5 8 11 13 13 12 11 10 9 9 7 6 5 5 4 3 4 4 6 7 8 8 8
19 20 20 18 19 18 11 7 8 9 11 10 9 7 6 7 5 8 10 8 7 7 8 5 4 5 6 9 13 19 25 29 33 45 56 56 52 46 51 63 67 69 75 71 55 55 60 60 56 38 18 10 8 7 6 6 7 8 6 5 6 5 5 7 10 14 14 12 12 10 9 9 7 6 5 5 4 3 4 4 5 7 7 8 7
19 19 20 20 21 19 11 8 10 10 10 10 9 7 9 8 6 15 17 9 9 7 7 6 4 5 6 9 12 17 23 26 28 35 47 52 52 46 47 57 65 69 75 77 60 52 55 54 53 38 19 10 8 7 6 6 7 8 7 6 6 6 5 7 9 13 14 13 13 11 9 8 7 6 6 5 4 3 3 4 5 6 7 7 7
20 20 19 18 21 19 11 9 10 9 9 9 7 9 13 10 7 19 22 12 10 7 6 6 4 5 6 10 13 19 21 22 23 24 30 38 48 52 53 54 57 62 72 81 68 54 53 52 49 37 21 11 8 7 6 5 7 8 7 6 6 6 6 6 8 12 14 14 13 12 10 8 7 6 6 5 4 4 3 4 5 5 6 6 6
23 23 21 17 17 15 9 8 9 10 9 7 7 9 13 14 12 16 19 12 9 6 6 5 4 5 6 10 12 17 18 17 19 19 20 23 32 43 48 52 54 54 63 79 77 60 53 53 49 36 21 13 9 7 7 5 6 8 8 7 6 6 6 6 8 10 14 15 15 13 11 8 7 7 6 6 5 4 4 4 4 5 5 6 6
25 25 21 15 12 10 9 9 10 11 9 9 10 9 11 15 14 14 16 13 8 4 4 4 3 4 5 9 11 14 15 14 15 14 16 16 20 27 32 39 47 50 53 69 81 70 56 55 50 38 24 15 10 7 7 5 6 9 9 7 6 6 6 7 8 10 12 15 16 14 12 9 8 7 6 6 6 5 4 4 4 4 5 5 5
26 24 19 14 11 10 11 11 11 11 10 12 12 11 11 11 10 11 18 16 9 5 4 3 2 3 4 6 9 12 13 12 10 9 9 12 18 21 20 24 33 44 48 58 77 77 65 58 48 39 26 16 12 8 8 5 5 9 9 8 6 7 6 7 7 8 11 14 16 16 13 10 8 8 7 7 7 6 5 4 4 4 4 5 5
26 22 17 14 13 13 12 12 12 11 11 11 11 12 10 8 8 10 18 16 8 6 4 2 2 1 2 5 8 12 13 11 10 9 6 6 13 19 22 22 29 41 48 54 71 79 76 65 47 37 27 17 15 10 8 6 5 8 10 9 7 6 7 7 9 8 10 13 16 17 14 11 9 8 8 8 8 7 6 5 4 4 4 4 4
25 20 17 16 15 13 12 11 11 10 11 9 9 10 8 8 8 9 15 15 8 6 4 3 3 2 2 3 6 8 8 8 10 9 5 3 5 14 23 26 32 46 54 57 68 78 82 75 52 37 29 20 16 11 8 6 4 8 10 9 7 6 7 7 10 10 9 12 16 17 16 13 10 9 9 8 8 7 7 6 5 4 4 4 4
24 21 19 18 15 12 10 11 10 9 9 7 8 7 7 7 7 11 14 13 9 7 8 5 4 4 2 2 4 4 3 5 7 6 3 2 2 9 22 28 34 46 57 62 69 79 84 85 64 40 32 23 17 13 8 7 4 6 10 10 9 6 7 8 9 11 10 10 15 17 17 15 12 10 10 8 8 8 8 7 6 5 5 4 4
25 22 19 18 15 12 10 11 10 9 8 7 6 6 7 7 7 12 14 13 9 10 12 9 7 6 4 3 2 1 3 6 7 6 3 2 3 8 19 27 35 45 59 68 71 80 83 88 78 45 33 28 16 14 9 7 4 5 10 10 10 7 7 8 8 11 11 10 12 16 18 17 14 11 10 10 10 11 10 9 9 7 6 5 5
26 22 19 17 16 14 11 10 10 9 8 6 6 6 7 9 10 11 13 11 9 11 12 10 9 7 5 2 3 6 8 11 10 6 2 4 4 8 19 29 41 50 65 79 77 80 81 87 86 48 29 30 18 13 10 6 4 4 10 10 10 9 7 8 8 10 12 11 11 15 19 19 17 13 12 12 12 11 12 11 10 9 8 7 6
26 22 19 17 17 16 13 10 8 8 7 7 7 5 6 11 11 9 11 10 8 9 7 6 4 4 4 2 6 10 14 21 19 11 5 5 4 8 23 34 45 54 71 92 88 81 79 84 92 56 23 27 22 14 10 7 5 4 9 12 10 9 8 8 8 9 11 13 12 15 20 21 19 16 14 14 13 12 11 12 11 10 9 8 8
26 21 18 17 16 16 15 12 8 7 6 7 6 5 9 11 9 8 9 9 9 7 4 4 2 2 3 5 10 15 29 35 27 23 17 10 6 12 28 37 44 54 72 93 95 90 81 78 90 73 34 26 25 15 11 8 4 6 10 13 12 10 11 13 12 9 9 12 13 17 21 22 22 19 17 15 14 13 11 11 11 11 10 9 9
25 20 18 18 17 15 14 12 9 7 6 6 5 8 13 9 7 9 8 8 7 5 4 3 3 3 3 9 14 23 38 42 42 38 24 16 16 22 31 38 47 55 67 84 96 97 89 79 82 78 46 25 24 17 12 9 5 6 11 14 14 12 11 17 19 11 9 11 12 17 21 24 25 23 20 17 15 13 12 11 11 11 10 10 10
23 20 20 21 19 15 12 11 10 8 6 5 5 8 12 9 9 13 13 11 8 5 5 3 5 5 4 10 15 22 28 36 54 42 16 14 21 34 41 45 56 59 62 77 95 100 97 91 81 79 60 26 19 19 13 9 6 6 11 15 15 14 11 13 16 12 10 11 12 14 19 23 26 26 24 20 17 14 12 12 11 11 10 10 10
22 21 23 23 20 15 12 10 9 7 5 5 5 6 8 9 9 10 12 11 8 7 6 4 6 8 9 11 12 21 25 25 32 20 8 13 16 33 50 57 68 70 66 70 83 92 99 102 89 82 76 42 17 16 15 9 7 6 11 16 16 15 13 11 11 11 11 12 12 12 15 20 23 26 27 24 21 16 13 12 11 11 11 10 11
25 25 24 22 19 15 13 10 8 6 5 5 5 5 6 8 8 7 8 7 6 7 6 6 6 9 11 12 12 16 19 11 9 7 7 10 10 22 37 47 61 71 76 71 69 79 90 102 100 89 82 61 28 14 13 9 7 7 11 16 17 18 15 12 11 11 11 11 12 12 13 16 19 23 26 26 22 19 15 13 12 11 11 10 10
29 29 26 21 17 13 11 10 9 7 5 5 5 5 6 7 9 8 6 5 6 7 7 7 8 9 10 12 14 11 9 6 6 9 8 7 9 14 23 31 39 50 62 63 57 66 78 88 98 98 90 75 43 18 13 11 7 7 11 16 18 19 18 14 11 11 11 11 11 12 13 12 14 18 20 22 19 17 16 14 13 13 12 11 11
32 30 26 20 15 11 9 9 9 8 6 6 5 5 5 7 9 8 6 5 6 9 9 8 9 10 9 10 12 9 8 8 8 9 10 11 10 11 17 20 22 27 37 47 45 45 61 76 86 94 96 89 61 27 14 13 10 7 10 16 19 20 20 16 12 12 12 12 11 11 12 10 11 13 15 16 15 14 13 12 11 11 12 13 13
33 31 25 19 12 9 8 8 8 8 7 6 5 5 5 7 9 8 7 7 8 11 12 9 10 10 10 11 10 10 9 9 12 14 15 16 15 14 13 15 20 24 27 33 34 31 43 67 82 88 94 97 80 45 19 12 12 9 9 13 18 20 20 19 15 12 13 12 11 9 10 9 9 10 11 11 11 11 10 9 8 8 9 12 15
32 32 27 19 12 7 6 7 8 9 8 5 5 5 6 8 8 7 6 8 11 13 14 12 12 12 11 12 11 12 11 11 13 16 18 18 17 16 13 14 18 26 31 25 24 30 34 52 74 87 92 96 92 68 35 17 12 11 11 12 15 19 19 20 17 13 12 12 12 10 8 8 8 8 8 8 8 7 7 7 6 6 6 8 12
33 32 26 19 11 7 6 6 7 8 7 5 6 5 6 9 7 7 6 7 11 14 14 14 13 13 12 13 13 14 13 12 10 9 14 14 15 19 20 17 13 22 33 23 18 30 41 50 63 80 89 90 93 86 56 28 16 13 13 13 12 16 19 19 19 16 13 15 17 13 9 7 7 7 7 6 6 5 5 5 5 5 5 5 7
31 27 21 16 10 7 6 6 5 6 6 5 6 6 6 8 7 6 7 7 9 10 11 13 12 11 11 11 18 24 18 12 10 8 8 8 13 20 26 28 26 32 39 33 25 27 44 60 65 77 87 85 87 92 76 45 23 15 14 14 11 12 17 19 19 19 15 17 21 17 10 9 7 6 7 6 6 5 5 6 6 6 5 5 5
22 19 17 14 9 6 6 6 5 5 5 5 5 6 6 6 7 6 7 8 8 9 9 11 10 9 10 8 14 21 17 11 12 10 8 12 16 18 25 31 35 44 51 55 47 34 40 58 65 71 81 87 89 93 89 67 38 22 15 14 14 10 12 17 19 20 17 16 18 15 13 13 11 8 7 7 7 6 6 6 7 7 6 5 6
16 16 16 13 8 7 7 6 6 5 5 6 5 5 6 5 6 6 8 8 8 10 10 10 10 9 9 8 8 9 9 9 11 11 11 17 20 17 19 31 44 49 53 58 55 44 40 52 63 63 67 77 89 97 97 87 58 33 23 16 16 17 11 13 18 20 19 16 15 13 12 15 13 10 9 9 8 7 7 6 6 6 7 7 6
13 15 14 11 9 8 8 7 6 6 5 5 5 5 6 5 6 7 8 9 9 9 10 9 9 9 9 9 8 7 8 8 9 12 12 13 15 12 12 28 44 47 51 49 43 46 43 45 56 61 68 73 78 86 90 96 80 47 34 23 16 20 15 10 14 18 20 17 16 14 12 12 12 10 10 10 9 9 8 7 7 7 8 9 8
13 12 11 9 10 9 9 9 7 7 6 5 6 6 6 6 7 8 8 9 9 9 9 9 9 9 9 9 8 7 8 8 7 8 8 9 8 6 7 20 32 33 43 42 35 49 49 43 49 49 63 76 77 77 74 89 96 64 44 35 21 18 19 14 11 14 19 20 19 18 15 12 12 12 11 11 10 10 9 8 8 7 8 10 10
13 12 12 10 11 10 10 10 8 8 7 6 6 6 6 6 7 8 9 8 8 9 8 9 9 9 9 8 9 9 10 9 7 6 6 9 7 6 10 18 23 18 26 32 26 39 47 41 44 39 42 55 66 77 76 85 100 83 56 45 35 25 21 20 18 14 14 18 20 20 18 15 13 12 12 11 10 10 10 9 9 9 8 9 10
14 13 12 12 11 11 11 10 9 9 8 7 7 7 7 7 8 8 8 8 8 9 9 10 10 9 9 8 9 10 11 10 8 8 6 8 8 10 16 19 22 15 16 25 19 25 40 36 26 22 27 32 38 60 80 92 101 95 74 55 46 39 30 24 24 22 15 14 18 19 18 16 14 13 12 12 11 10 10 10 9 9 9 8 9
14 14 13 12 12 10 11 10 9 9 8 8 7 7 7 7 8 8 8 9 9 9 9 10 10 9 9 9 10 10 10 9 7 8 6 8 9 9 15 18 21 22 19 24 27 29 39 44 30 12 13 20 19 31 61 89 100 99 89 73 58 48 42 33 26 24 20 15 15 16 18 17 15 14 13 13 13 12 12 12 12 11 11 10 10
14 14 13 12 12 10 10 9 9 9 8 9 8 8 8 7 8 8 9 9 9 10 9 10 10 10 10 9 11 10 9 9 7 7 6 7 9 10 13 16 21 27 29 27 30 31 28 44 50 26 14 18 14 14 37 72 94 99 97 93 79 58 48 45 36 25 19 18 17 15 15 17 17 15 15 14 14 15 15 15 16 15 14 13 12
14 13 13 11 11 9 9 9 8 9 8 9 8 8 8 8 8 8 9 9 9 10 10 10 10 9 10 9 10 10 10 9 8 7 6 6 8 10 10 21 31 28 27 25 21 24 23 39 60 49 35 34 27 18 25 52 79 92 95 95 91 74 57 51 46 34 22 17 19 17 13 13 16 16 16 16 15 15 16 17 18 18 17 16 14
14 14 12 11 11 9 9 8 8 8 8 9 9 9 9 8 9 9 9 9 9 10 10 10 10 9 9 10 10 11 10 9 9 7 6 5 5 6 5 14 26 20 26 38 35 30 24 33 56 63 59 59 60 48 38 54 77 89 93 90 89 82 70 58 49 43 33 22 20 21 17 11 10 14 15 16 16 14 15 16 17 18 18 17 16
16 14 13 11 11 9 9 8 8 8 8 9 9 9 9 9 9 9 9 10 10 10 11 10 10 10 9 9 10 10 10 9 9 7 6 6 3 5 5 4 10 14 21 34 39 36 29 27 34 52 69 73 85 85 73 83 95 96 97 94 89 82 79 74 60 49 40 30 23 21 21 16 9 9 11 12 13 13 13 14 15 17 18 18 18
20 17 14 13 11 10 9 9 8 8 7 8 8 9 9 9 9 9 9 10 10 10 10 10 10 10 9 10 10 9 10 9 9 9 6 6 5 4 5 4 5 9 7 6 14 22 26 26 20 41 70 69 79 97 95 99 101 98 100 99 95 87 85 88 77 64 52 39 29 22 20 18 11 7 7 8 9 9 10 11 12 13 15 17 17
26 22 19 16 13 11 10 10 10 10 10 9 9 9 9 9 9 9 10 9 10 10 10 11 10 11 10 10 11 10 10 10 9 9 8 6 6 5 4 5 4 4 3 -1 2 4 7 11 9 26 49 47 61 90 97 98 99 99 100 99 99 97 96 96 89 82 73 60 47 35 24 18 14 9 5 5 6 6 7 8 9 9 11 14 16
33 30 26 21 17 13 13 13 13 13 13 12 11 12 11 10 10 9 10 10 10 10 10 11 11 11 11 10 11 10 9 10 9 8 9 7 6 6 5 5 5 3 3 2 1 0 0 2 1 6 16 18 39 68 83 94 100 99 100 100 99 99 101 101 96 92 88 83 75 61 44 25 17 14 9 4 3 3 4 5 6 7 8 10 13
38 34 29 26 21 17 15 15 16 15 14 14 13 14 14 13 13 12 13 12 12 12 11 11 11 11 12 11 11 11 10 9 9 8 8 8 7 6 5 4 5 4 3 3 2 2 0 1 0 0 3 5 15 32 49 75 98 102 99 100 100 100 99 99 100 98 96 96 91 83 72 52 32 22 17 10 6 5 4 4 5 6 9 10 11
44 39 32 28 23 20 18 17 18 17 15 15 14 14 14 14 15 14 14 14 14 14 13 12 12 12 11 12 11 10 10 9 9 9 8 8 7 6 6 5 4 4 3 3 2 2 2 1 1 1 2 4 6 10 19 42 75 96 102 100 99 100 100 99 99 100 100 100 97 94 93 87 67 43 30 22 12 9 7 6 7 6 10 14 14
51 45 36 29 24 21 20 18 19 18 16 16 15 15 15 15 14 14 14 15 14 13 13 12 12 12 11 11 11 9 10 9 8 8 7 7 7 6 5 4 4 3 3 3 3 2 2 2 2 2 3 4 4 6 9 17 39 69 92 98 93 90 93 99 101 99 99 99 100 100 99 101 94 78 71 59 35 21 16 12 12 13 17 24 25
51 47 42 34 26 22 20 19 18 18 16 15 15 14 14 13 13 13 13 13 13 12 11 11 9 9 9 8 9 8 8 8 7 7 6 6 5 5 4 4 4 3 3 3 3 3 3 3 3 4 4 5 4 4 5 8 15 31 52 65 67 66 70 83 95 99 101 100 98 100 100 100 99 96 97 89 68 53 40 27 26 31 37 43 44
46 46 44 34 26 23 21 19 17 16 15 13 13 13 12 12 10 10 11 10 11 10 9 8 7 6 6 6 5 5 5 5 5 5 5 5 4 4 4 3 3 3 3 3 3 3 3 3 3 4 4 4 4 3 2 4 7 10 16 25 33 36 37 46 61 76 89 100 100 98 99 100 99 98 97 95 91 85 72 55 46 49 54 60 62
41 41 38 34 33 27 19 17 17 16 15 13 12 10 9 8 8 7 8 7 7 7 6 6 5 4 4 4 4 4 4 4 4 4 4 4 4 3 3 3 3 2 3 2 3 3 3 3 4 4 4 4 3 3 2 2 3 5 6 8 11 14 16 19 25 36 54 81 99 100 99 99 100 100 100 99 100 98 93 82 75 75 80 82 81
34 34 30 31 34 27 21 20 17 16 13 9 8 8 6 4 5 4 4 5 5 4 5 4 3 3 3 3 3 3 3 3 3 4 4 3 3 3 3 2 2 2 2 2 3 3 3 3 3 3 3 4 4 3 3 3 2 3 3 4 4 4 8 11 13 15 21 45 75 89 95 99 100 99 100 100 100 100 101 98 97 97 95 95 94
Wind_Speed
21 21 21 21 22 22 22 22 22 21 20 20 20 20 20 19 19 19 19 19 18 18 17 17 17 16 15 14 12 12 11 10 10 8 6 7 8 10 10 10 10 8 7 5 4 4 5 5 4 2 4 5 6 6 5 4 5 8 11 14 17 18 18 17 15 14 13 12 11 10 9 9 9 9 8 8 8 8 8 9 9 9 10 10 9
22 22 21 21 22 22 22 22 22 21 20 20 21 20 20 20 19 20 19 18 17 17 16 16 16 16 14 13 12 11 10 10 10 9 7 8 9 10 11 11 10 9 8 6 5 5 5 6 4 3 4 6 7 8 6 5 5 8 10 13 16 18 18 17 16 14 13 12 11 10 9 9 9 8 8 8 8 8 8 9 9 9 10 10 9
23 22 22 22 22 22 22 22 22 21 21 21 21 20 20 20 20 19 19 18 17 16 16 15 15 14 13 12 10 10 10 10 10 10 9 9 10 10 11 12 11 10 9 7 6 6 6 6 5 3 5 7 8 8 7 6 6 8 10 13 16 18 18 17 16 15 14 13 11 11 10 9 9 9 8 8 8 8 8 9 9 9 10 10 9
24 23 22 22 22 22 22 22 22 22 22 22 21 20 20 20 20 19 18 18 17 16 16 15 14 13 12 11 10 10 9 10 10 11 11 10 10 11 12 13 12 11 10 9 8 7 7 7 6 4 5 8 9 9 8 7 6 8 10 13 16 18 18 17 16 15 14 13 12 11 11 10 10 9 9 9 9 9 9 9 9 9 10 10 9
24 24 24 23 22 22 22 22 22 22 22 22 22 21 20 20 20 19 18 18 17 16 16 15 13 13 12 11 10 10 10 10 11 12 12 12 11 11 12 13 13 12 11 10 9 8 8 8 7 5 6 8 10 10 10 8 7 8 11 13 16 17 17 17 16 15 14 13 13 12 11 11 11 10 10 10 10 10 10 10 10 10 10 10 9
25 25 25 25 24 23 22 23 23 23 22 23 23 21 20 20 20 19 19 18 17 16 15 14 13 12 12 11 11 10 11 11 12 13 13 13 12 12 12 14 14 14 12 11 11 10 9 9 8 6 6 9 11 11 11 9 8 8 11 14 16 17 17 17 16 15 15 14 13 13 12 12 12 11 11 11 11 11 11 11 11 11 10 10 9
27 27 27 27 25 23 22 23 23 23 23 23 24 22 21 21 20 19 19 18 17 16 15 14 13 13 12 12 12 11 11 12 13 14 14 13 13 13 13 14 16 16 14 13 12 12 11 11 10 7 7 10 12 12 12 10 9 9 12 14 16 17 17 17 16 16 15 14 14 14 13 13 13 12 12 12 12 12 12 11 12 12 11 10 10
28 28 28 27 26 24 23 23 23 23 23 24 24 23 22 21 21 20 19 18 17 16 15 14 14 13 13 12 12 12 11 12 13 14 14 14 13 13 13 14 16 17 17 15 14 14 13 12 11 8 8 11 13 13 13 11 10 10 12 15 16 17 18 17 17 17 16 15 14 14 14 14 14 13 13 12 13 13 13 12 12 12 12 11 10
29 28 28 27 26 25 24 24 24 24 24 24 24 22 23 22 21 20 18 18 17 16 15 15 14 14 13 12 12 11 10 10 11 13 14 14 14 14 13 13 15 18 18 17 16 15 14 13 12 10 9 12 14 15 14 13 11 11 13 15 17 18 18 18 17 17 16 16 15 15 15 15 15 14 14 13 14 14 14 14 13 13 13 11 10
29 29 29 28 27 25 24 25 24 25 25 24 23 22 23 23 22 20 18 18 18 16 15 15 15 14 13 12 11 11 10 9 10 12 14 15 15 16 15 14 14 16 19 19 18 17 16 14 12 11 10 13 15 16 15 14 12 11 13 16 18 19 19 18 18 18 17 16 16 15 15 16 16 15 15 14 14 15 15 14 14 14 13 12 11
29 29 28 28 27 25 24 25 25 25 25 24 23 22 23 22 21 19 18 19 18 17 16 16 16 15 14 13 12 11 11 10 10 10 11 13 15 18 19 19 17 16 17 20 20 18 17 15 14 12 11 14 16 17 17 15 13 12 13 15 18 19 19 19 18 18 17 17 16 16 16 17 16 16 15 15 15 15 15 15 15 14 14 13 12
29 28 27 26 26 26 25 25 26 26 26 24 23 23 23 23 21 19 18 19 18 18 17 16 16 15 14 13 12 12 11 11 11 11 10 11 13 17 20 21 21 18 17 19 21 20 18 16 15 14 12 14 17 18 18 16 14 12 13 16 18 19 20 20 19 18 18 17 16 15 17 18 17 17 16 15 15 15 15 15 15 15 14 14 12
28 26 26 25 26 26 26 27 27 26 25 24 23 23 24 24 21 18 18 18 18 18 17 17 16 15 14 13 13 13 13 12 12 11 11 10 10 14 18 21 21 20 18 18 21 22 20 18 16 15 13 14 17 19 19 18 16 13 14 16 18 20 20 20 20 19 18 18 17 16 16 18 18 17 16 16 15 15 15 15 15 15 15 14 13
27 26 25 26 26 27 27 28 27 25 24 24 23 23 24 24 20 17 17 19 19 19 17 17 16 15 14 13 13 14 14 13 12 12 11 11 11 12 15 18 19 19 19 18 21 23 22 20 17 16 14 15 17 19 20 19 17 15 14 16 18 20 21 21 20 19 18 18 18 16 16 17 18 17 16 16 15 15 15 15 15 15 15 14 13
26 25 25 26 27 28 27 27 26 25 24 24 24 24 25 23 20 18 18 19 19 19 17 16 15 14 14 13 14 14 14 13 12 12 12 11 12 13 14 16 18 19 19 19 21 23 24 21 19 17 16 16 17 20 21 21 19 16 15 16 18 20 21 22 21 19 19 19 18 17 16 16 17 17 17 16 16 16 15 15 15 14 14 14 13
26 25 25 26 27 27 27 26 25 25 25 24 24 25 26 23 19 18 18 19 19 18 17 15 14 15 14 14 14 14 14 14 13 13 13 13 13 14 15 15 17 19 19 20 21 23 25 24 21 19 18 16 17 20 22 22 20 18 16 15 18 20 22 22 21 20 19 19 19 18 17 17 17 18 18 18 16 15 14 14 13 13 13 13 12
25 25 25 26 26 26 26 25 25 25 25 25 25 26 26 22 20 18 18 19 18 16 16 14 14 15 14 14 15 15 15 15 15 15 15 14 14 14 16 16 16 17 19 21 21 23 25 27 25 20 18 17 17 20 22 22 21 18 17 16 17 20 22 23 22 22 20 19 19 19 18 17 17 18 18 17 16 15 13 13 12 12 12 12 12
25 25 25 26 26 26 26 25 25 25 26 26 26 27 25 22 21 19 18 18 17 15 15 14 15 15 15 15 15 16 17 17 16 16 16 16 15 14 16 16 15 15 18 21 22 23 24 28 27 20 18 18 17 20 23 23 22 20 18 17 17 20 21 23 23 23 22 21 20 20 19 19 18 19 18 17 16 16 15 14 13 12 12 12 11
26 25 25 27 27 26 26 25 25 25 26 27 27 26 24 22 22 20 19 19 16 15 14 14 15 15 15 16 16 17 18 18 16 16 16 16 15 14 15 16 15 14 18 21 22 23 23 26 28 21 16 17 18 19 23 24 23 21 18 18 17 19 21 23 24 24 24 23 21 20 20 20 19 19 18 18 18 17 16 15 14 13 12 12 11
27 26 26 27 27 26 26 26 26 26 26 26 26 25 23 23 22 20 19 19 17 14 14 15 16 15 15 16 16 16 16 16 15 16 16 15 14 14 15 16 15 13 17 21 21 22 22 22 25 23 17 16 18 19 23 25 23 22 19 18 18 19 21 23 24 25 25 24 23 21 21 21 20 20 19 19 19 18 17 16 15 14 13 12 11
27 27 27 27 26 25 26 27 27 27 27 26 25 24 23 22 20 20 19 18 17 15 14 15 16 16 15 16 16 15 15 14 14 14 14 13 13 13 14 16 16 14 16 20 20 19 20 20 21 22 19 16 18 20 24 26 25 23 21 19 18 19 21 23 24 25 26 26 24 23 23 22 22 21 20 20 20 19 18 17 16 15 13 12 12
27 27 26 26 25 24 25 26 27 27 26 24 23 23 22 21 19 19 18 18 17 16 15 16 17 17 16 16 17 16 15 15 13 11 11 12 11 12 14 15 16 15 15 18 19 17 17 18 18 21 21 17 19 22 24 27 26 25 22 20 19 19 20 22 24 25 26 26 26 26 25 24 23 22 21 21 21 21 20 18 17 16 14 13 12
26 25 24 24 23 24 25 26 26 25 24 23 23 22 21 20 19 18 18 19 18 17 17 17 18 17 17 17 17 16 15 15 14 12 11 10 11 13 14 15 16 16 15 17 19 18 16 16 15 17 22 19 19 23 26 28 27 26 24 22 20 19 19 21 24 26 27 27 27 27 27 25 24 23 23 22 21 21 21 19 18 17 16 14 13
24 23 22 22 23 24 25 25 25 24 23 22 22 22 21 20 19 19 19 20 19 18 18 18 19 18 18 18 17 16 15 15 14 12 11 10 11 14 15 16 17 17 17 18 19 19 17 17 16 15 19 21 19 23 27 28 27 26 25 22 20 19 19 21 23 26 27 27 28 28 28 27 26 25 25 24 23 22 21 20 19 18 17 16 15
23 22 22 23 23 25 25 25 25 24 23 22 22 21 21 20 20 20 20 21 20 20 19 19 19 18 18 17 16 15 14 13 12 11 11 11 12 14 16 17 18 19 19 19 19 19 19 19 19 16 16 20 21 22 26 28 27 27 25 23 21 19 19 20 22 24 26 27 28 29 29 29 28 27 27 25 24 23 22 21 21 20 20 19 18
22 21 22 23 24 25 25 26 26 25 23 22 22 21 21 21 21 21 21 22 21 21 20 19 19 17 17 17 16 15 13 12 11 11 11 10 12 15 16 17 18 20 20 21 20 20 20 20 22 21 17 18 22 23 25 28 28 27 26 25 22 21 20 20 21 24 26 27 28 29 30 30 29 29 28 27 26 24 24 23 22 22 21 21 20
23 22 22 23 24 25 26 26 26 25 24 23 22 22 22 22 21 22 22 22 22 21 20 19 19 18 17 17 16 15 14 11 10 11 11 11 13 14 15 17 18 20 21 22 22 21 21 21 21 23 21 18 20 23 25 27 28 28 27 26 24 23 21 21 21 23 25 27 28 29 29 30 29 29 28 28 27 26 26 25 24 23 22 22 22
26 25 23 23 24 25 26 26 26 26 25 23 22 23 23 22 22 23 23 23 22 21 20 20 19 18 18 17 17 16 14 12 12 12 12 13 13 14 15 16 18 19 20 21 22 21 22 23 22 22 23 20 19 23 26 27 29 29 28 28 27 25 23 22 22 23 25 27 28 28 29 29 29 29 29 28 28 28 27 27 26 25 24 23 22
28 27 25 23 23 24 25 25 25 25 24 22 22 24 23 23 23 23 24 24 23 21 20 20 19 19 18 18 18 17 15 15 14 14 15 15 15 16 16 16 17 18 20 21 22 22 22 23 24 24 24 23 21 22 26 29 29 30 30 30 29 27 25 23 23 23 24 26 27 28 28 28 29 29 28 28 28 28 28 27 27 26 25 24 23
28 27 25 23 21 22 23 23 22 22 22 21 22 23 24 24 24 24 24 24 23 22 21 20 20 19 18 18 19 17 16 16 16 16 16 17 17 18 18 17 17 18 19 20 21 22 22 22 24 24 24 25 24 24 26 29 30 30 31 31 30 29 27 26 25 24 25 26 27 27 28 28 28 28 29 29 29 29 28 28 27 27 26 25 24
27 26 25 22 20 20 21 21 21 21 20 20 21 23 24 24 24 24 24 24 24 23 21 21 20 19 18 18 19 19 18 18 19 18 18 18 19 19 19 18 18 18 18 19 19 20 22 22 23 24 25 24 25 24 25 28 31 31 31 31 31 31 30 29 27 26 25 26 27 27 28 28 28 28 28 28 28 28 28 28 28 27 27 26 25
26 25 24 21 20 20 20 20 20 20 20 20 20 22 23 24 25 25 24 24 24 23 22 21 20 19 19 19 20 21 21 21 21 21 20 19 20 20 20 19 18 18 17 16 16 18 21 22 23 24 25 25 24 24 24 27 31 32 31 31 32 33 32 31 29 27 26 26 27 27 28 28 28 28 28 27 27 27 28 28 27 27 26 26 25
25 25 23 22 22 21 21 21 20 21 20 20 20 21 23 24 25 25 25 25 24 23 22 21 20 20 21 21 21 22 23 23 24 23 22 21 22 22 21 20 19 18 16 15 16 17 20 21 23 23 25 26 26 26 25 27 31 33 32 32 32 34 33 32 31 29 28 27 26 26 27 27 27 28 28 27 27 27 27 27 27 27 26 25 25
26 26 25 25 24 23 22 22 22 22 22 22 22 22 23 25 26 26 25 25 24 23 22 21 21 21 22 22 22 23 24 24 25 24 23 23 23 23 23 22 20 19 19 18 17 18 19 20 22 24 25 25 25 27 28 28 32 33 32 32 32 33 34 33 32 31 29 28 27 27 26 26 27 27 28 28 28 28 28 28 27 27 26 25 25
26 27 27 27 26 25 24 24 24 24 24 24 24 24 24 25 26 27 26 25 24 23 22 21 21 22 22 22 22 23 23 24 25 25 23 23 23 23 24 23 22 22 22 21 20 19 20 20 22 23 25 25 25 27 29 30 33 36 33 32 32 32 33 34 33 33 32 30 29 28 27 26 27 27 28 28 29 29 29 28 28 27 26 26 25
27 28 28 28 27 26 25 24 25 26 26 27 27 26 26 25 26 26 26 25 24 24 22 22 22 22 22 22 22 22 23 24 24 24 23 23 23 23 24 25 24 24 23 22 22 21 22 23 23 23 24 25 25 27 29 30 32 36 36 33 33 32 32 34 35 35 34 33 32 29 29 28 28 28 28 28 29 29 28 28 28 27 26 26 26
29 28 28 28 28 27 26 25 25 26 27 28 28 28 27 26 26 26 26 25 24 24 23 22 22 22 22 22 22 22 22 23 23 23 23 23 23 23 24 25 25 25 23 23 24 23 23 24 24 24 24 24 25 26 29 28 27 32 36 35 35 35 33 33 35 36 36 35 33 32 31 31 30 29 28 28 28 28 28 27 27 26 26 26 26
29 28 28 28 28 28 27 26 26 26 27 28 29 29 28 27 27 26 26 25 25 24 23 23 23 23 23 23 23 22 22 22 22 23 23 23 23 23 24 25 25 26 25 24 24 24 25 25 23 24 24 24 25 26 28 28 26 29 34 36 37 38 37 34 33 35 36 36 35 35 35 33 32 30 30 30 29 29 28 27 26 26 26 25 25
29 29 29 28 28 28 28 27 27 27 27 29 30 30 29 28 28 27 27 26 25 25 24 24 24 24 24 23 23 23 22 22 22 23 23 24 24 24 25 26 26 26 26 26 26 26 26 25 24 25 25 25 25 26 27 28 27 28 32 36 37 39 40 38 35 34 35 37 38 38 37 35 34 33 32 32 31 30 29 28 27 27 26 26 25
29 30 30 29 29 29 28 27 27 28 29 30 31 30 30 29 29 28 27 27 26 26 26 26 26 26 25 24 24 24 23 23 23 23 23 24 24 25 26 27 27 27 27 26 27 27 26 25 25 26 27 27 27 26 27 29 29 30 33 36 37 39 42 42 39 37 36 37 39 40 39 38 37 36 35 34 33 33 32 30 29 28 28 27 26
30 30 31 31 30 30 29 27 26 27 28 30 31 31 31 30 29 29 29 29 28 28 28 28 28 27 27 26 26 25 25 24 23 23 23 23 24 25 27 28 28 28 27 26 26 27 27 27 27 27 28 28 29 29 30 30 29 29 30 33 35 38 42 44 43 42 40 39 38 40 41 40 40 38 38 37 36 35 34 32 31 30 30 28 27
30 31 32 32 32 31 30 28 26 26 27 28 30 31 31 31 30 30 30 30 30 30 30 30 30 29 28 28 27 27 26 25 25 24 23 23 24 25 26 28 28 29 29 29 29 29 29 29 29 29 28 28 30 32 32 31 30 28 27 29 33 36 40 42 44 45 45 42 39 39 40 41 41 41 41 40 39 38 37 35 34 32 31 30 29
30 31 32 32 32 32 31 29 27 26 26 26 26 28 30 30 31 31 31 32 31 32 31 31 30 30 29 29 29 28 28 27 26 25 25 24 25 25 27 28 28 29 30 30 30 30 31 31 31 30 29 29 30 30 30 30 30 29 28 28 30 33 38 40 42 45 47 46 44 42 41 41 42 43 43 42 41 41 39 38 36 34 33 33 32
29 31 32 32 33 32 31 29 28 27 26 26 25 25 27 28 28 29 30 31 31 31 31 30 30 30 30 30 29 29 28 28 27 26 26 26 26 26 27 28 28 29 29 29 30 30 31 31 31 31 31 31 31 29 28 29 28 26 25 24 22 24 32 38 40 43 45 46 47 46 44 42 42 44 44 44 43 43 42 39 38 38 36 35 35
28 30 32 33 34 33 32 30 28 27 28 27 26 26 26 26 26 27 27 28 29 30 30 30 30 30 30 30 29 29 29 28 28 27 27 27 27 27 27 28 29 29 30 29 29 30 30 30 29 30 30 31 31 30 29 29 27 25 23 22 19 18 23 30 35 40 43 45 45 44 44 43 44 45 43 44 44 43 43 42 41 42 40 39 39
28 30 33 34 35 35 33 30 28 28 28 28 27 26 27 27 26 26 26 27 27 28 28 29 29 29 29 29 29 29 29 29 28 27 27 27 28 28 28 28 29 30 30 30 29 29 29 30 29 28 29 30 31 31 30 29 27 26 25 24 21 18 18 21 24 29 36 43 45 43 42 39 41 45 45 44 44 44 44 44 45 44 43 42 42
29 31 34 35 35 35 34 31 28 29 29 28 27 26 27 27 26 26 26 26 26 26 27 27 27 28 28 28 28 28 28 28 28 27 27 27 28 28 28 28 29 29 30 30 29 28 28 29 28 28 28 29 30 30 30 30 28 27 26 26 24 21 19 20 20 20 24 33 41 45 45 39 35 39 41 42 44 45 45 47 47 46 46 46 45
31 32 34 36 36 35 34 30 29 29 30 29 28 27 28 28 27 26 26 26 26 25 26 25 26 26 26 27 27 27 27 27 27 27 26 27 27 28 28 28 28 29 29 29 28 27 27 27 27 27 27 28 29 28 29 30 30 29 29 29 29 25 23 23 22 20 20 23 31 39 43 43 39 36 37 41 45 46 47 47 47 47 48 48 47
34 34 35 37 37 35 32 29 29 29 29 30 28 27 28 28 27 27 26 25 25 25 25 25 24 24 24 25 25 25 26 26 26 26 26 26 27 27 27 27 27 28 28 28 27 26 25 25 26 25 26 27 27 27 28 30 31 31 31 32 32 30 29 28 27 25 21 20 26 33 35 39 42 38 38 41 43 45 47 48 47 48 48 49 49
35 35 37 38 38 35 31 29 29 28 29 29 28 27 28 28 27 27 26 25 24 24 24 24 23 23 23 23 23 23 23 24 24 25 25 25 26 26 26 25 26 26 26 26 26 24 23 23 24 24 24 25 26 26 27 28 29 30 31 32 33 32 32 32 31 29 27 23 22 27 30 33 36 37 36 37 37 39 44 46 46 46 45 47 50
35 36 37 38 35 31 29 28 28 27 28 29 28 27 27 26 26 26 25 24 23 23 23 22 22 22 21 21 21 21 21 21 22 23 24 24 25 25 24 24 24 24 24 24 24 23 22 22 22 23 23 24 25 25 25 25 26 27 29 30 31 31 31 31 31 31 30 27 24 23 24 27 30 32 33 32 32 33 35 37 38 38 38 41 46
Wind_Direction
259 262 265 267 268 269 268 268 270 271 274 278 281 284 286 288 290 291 292 293 294 294 294 296 297 297 295 294 293 294 295 291 286 277 254 238 217 200 203 209 212 214 220 234 251 257 254 260 263 226 202 204 208 208 212 219 223 215 201 195 194 190 188 187 185 184 182 176 167 156 147 138 132 128 124 126 129 133 134 128 124 120 116 113 110
258 261 263 264 265 265 265 265 267 269 272 275 278 281 283 285 287 289 291 293 293 293 293 294 296 295 292 294 294 292 290 282 277 273 252 233 223 206 202 210 217 218 221 231 244 254 255 261 267 232 202 206 210 209 211 217 219 216 205 196 196 194 190 190 187 184 183 177 169 159 151 143 138 135 132 133 136 140 140 135 131 127 121 119 117
259 262 263 262 263 263 263 264 265 268 270 273 276 279 281 283 286 289 292 293 293 293 293 294 295 292 290 291 288 282 279 274 269 268 255 233 222 214 208 210 218 222 223 227 236 246 252 259 267 241 206 205 209 211 211 217 218 213 207 199 198 197 193 192 189 186 185 180 172 163 155 149 146 143 141 141 143 145 145 140 137 132 126 125 123
261 263 263 263 262 262 263 264 264 266 269 271 274 277 279 281 285 290 293 295 295 293 293 294 294 290 288 286 278 272 267 261 258 257 253 240 224 218 215 213 217 223 225 227 231 239 247 255 265 248 210 205 208 211 213 217 218 211 206 201 200 199 195 194 191 187 187 183 175 167 161 155 152 151 149 148 149 150 149 145 140 135 131 130 129
261 263 264 264 264 264 264 263 264 265 267 269 272 276 278 281 286 290 295 298 297 293 291 292 293 289 286 282 274 265 256 249 246 244 244 241 231 223 221 220 219 222 226 227 230 236 243 251 261 251 215 204 207 211 214 217 217 210 204 203 201 200 198 195 192 189 190 186 177 170 165 160 157 156 155 154 153 153 152 148 143 139 136 134 134
261 263 264 265 266 265 264 263 264 265 267 269 272 275 278 282 286 292 298 300 297 293 290 290 289 286 282 276 268 257 249 241 236 234 236 240 238 231 227 225 223 224 227 228 229 233 238 245 254 251 220 203 205 210 214 217 216 211 205 203 202 201 199 196 193 192 192 189 181 173 169 164 161 159 159 157 155 155 153 150 146 143 141 139 138
262 264 265 267 267 266 265 264 263 265 268 271 273 277 280 284 287 292 299 299 295 292 289 287 286 282 276 271 265 255 244 236 230 229 232 239 243 241 235 231 227 227 228 229 228 230 232 239 247 247 222 203 203 209 214 218 216 210 206 202 200 200 200 197 194 194 193 192 185 176 171 166 163 161 161 159 157 155 154 153 150 146 145 143 141
262 265 268 270 270 269 267 265 265 266 269 272 275 278 281 283 286 292 298 297 293 292 288 284 282 279 274 270 264 255 246 237 231 229 232 239 244 246 243 237 232 230 230 231 228 228 227 231 240 239 220 204 201 207 212 216 216 212 206 202 198 199 200 197 196 195 193 193 188 180 173 168 165 162 162 162 158 156 155 154 152 149 148 148 144
262 266 270 273 275 273 268 266 266 266 268 272 275 277 279 281 285 291 297 295 292 290 286 282 279 275 271 267 261 254 247 241 236 232 233 238 244 250 249 242 237 233 232 233 231 228 225 226 233 234 217 204 201 205 211 214 215 214 207 201 198 199 200 198 198 197 195 195 191 182 174 169 166 164 164 164 160 157 156 156 155 152 150 150 148
263 267 271 274 275 274 269 267 267 266 267 270 273 274 277 280 283 290 295 294 292 290 284 278 274 271 267 260 252 246 244 242 241 237 236 238 242 249 251 247 242 238 233 233 235 232 227 222 226 231 218 204 201 204 208 212 213 214 210 202 198 199 199 199 199 199 197 197 194 184 175 170 168 165 165 165 163 160 158 158 156 155 154 152 152
265 269 272 271 273 274 271 269 269 268 268 271 272 273 275 277 281 289 292 292 290 287 280 273 270 267 262 254 245 239 239 238 240 240 240 241 242 246 251 251 247 244 237 232 235 236 231 223 223 228 221 206 202 203 206 210 211 213 210 204 200 199 199 200 200 200 198 198 198 189 177 171 169 167 165 165 164 162 160 160 159 158 157 156 155
266 269 270 269 270 271 271 272 272 271 270 272 274 272 272 275 281 287 289 290 289 284 277 271 268 264 258 250 242 236 237 237 241 246 244 245 245 245 249 251 249 248 243 234 231 235 233 225 223 226 223 212 203 202 205 207 210 210 209 205 201 200 200 200 201 201 200 198 200 195 182 174 171 169 167 167 166 164 163 162 162 160 159 158 158
267 267 267 268 269 271 273 274 273 272 272 273 274 273 273 275 280 286 286 287 285 279 275 270 266 262 256 247 240 233 234 237 242 250 251 251 250 244 243 247 249 248 246 239 231 231 233 226 221 225 224 215 205 202 205 206 207 209 208 205 202 201 201 201 202 203 202 199 200 198 189 179 173 172 170 168 168 167 166 165 164 162 161 160 160
267 267 268 270 272 273 274 273 273 273 274 273 273 274 274 276 281 284 283 282 280 275 272 268 264 261 254 246 238 234 236 240 246 253 256 256 257 250 242 243 246 247 246 243 234 229 231 227 220 222 222 216 209 203 204 206 205 207 207 205 202 202 202 201 202 205 204 200 200 199 194 187 178 174 173 171 171 171 170 168 167 166 164 162 161
268 270 273 273 274 275 275 274 274 274 274 273 272 273 273 277 283 281 277 276 274 271 268 266 264 259 253 246 239 238 240 246 254 259 260 258 259 256 248 242 242 245 245 243 237 229 228 227 221 221 220 217 213 205 204 206 205 206 207 206 203 202 203 201 202 206 207 203 201 200 197 194 186 180 178 178 178 178 177 173 170 168 167 165 163
270 273 275 274 275 276 276 276 275 274 274 274 274 273 273 279 283 277 271 269 269 266 265 264 262 256 251 246 244 244 244 248 256 262 263 262 262 257 251 244 239 241 243 242 238 230 226 225 222 221 221 217 214 207 204 206 205 206 206 208 206 203 204 203 202 205 209 207 202 201 199 199 194 188 185 184 183 183 182 177 172 170 169 167 165
272 274 274 273 274 276 277 276 275 274 274 274 275 274 275 280 282 275 268 265 265 263 262 261 256 252 250 248 249 249 248 251 258 264 264 265 266 257 251 248 241 239 242 244 241 234 228 227 222 217 221 216 212 209 205 205 206 207 207 208 208 205 204 204 203 204 208 209 205 202 202 202 200 196 192 188 185 185 184 180 176 173 171 168 166
273 274 273 272 272 274 275 276 275 274 274 274 274 275 277 281 280 274 268 265 263 260 258 255 250 249 250 251 251 252 254 256 259 264 264 266 267 255 249 249 245 239 239 242 244 240 233 233 226 211 215 216 210 210 206 204 204 207 210 209 210 208 205 205 205 204 206 209 207 204 204 205 204 202 197 192 190 190 189 186 183 180 177 172 169
274 275 273 272 273 273 274 274 274 274 274 274 274 276 278 278 276 273 269 267 262 257 253 249 246 245 248 251 253 255 259 261 261 263 263 266 268 255 246 247 247 240 236 236 239 244 241 241 234 213 206 213 209 209 208 205 204 205 210 212 210 210 207 205 206 207 206 208 208 207 207 208 207 206 202 198 196 196 194 191 189 188 185 180 175
274 275 274 273 273 272 271 271 272 273 273 275 277 279 279 276 274 271 266 264 261 256 249 244 243 244 247 251 257 262 265 266 264 264 264 265 264 253 245 246 245 236 235 234 231 238 242 247 242 220 204 208 208 208 209 205 203 203 208 213 212 211 210 208 208 209 208 206 207 208 210 211 210 209 207 203 202 201 200 198 196 195 194 190 184
275 276 274 272 272 271 269 268 269 270 272 275 279 280 278 276 274 268 262 258 256 253 248 245 244 245 247 250 259 268 272 277 274 268 265 263 258 248 243 243 243 235 232 235 231 231 237 245 246 227 210 205 206 207 208 205 202 203 205 211 214 212 213 212 210 211 210 207 206 207 210 212 213 213 210 209 208 207 205 203 202 202 202 200 196
276 276 273 271 270 270 267 267 267 268 272 275 277 277 276 275 271 264 258 252 249 246 245 245 246 246 246 249 255 260 265 275 278 270 267 263 255 243 239 240 243 240 233 235 237 234 233 239 246 235 220 209 204 204 207 206 203 202 204 207 214 216 214 214 212 211 210 209 207 207 208 211 213 214 214 213 212 212 210 208 208 207 207 208 206
278 276 272 270 269 268 266 265 266 268 271 272 273 273 273 271 264 258 252 247 244 242 240 241 244 245 246 247 250 254 258 263 269 273 272 263 252 239 236 238 239 240 239 239 242 243 238 237 245 243 230 216 205 203 204 204 203 202 203 206 211 216 217 216 214 212 210 210 209 208 208 209 211 212 215 216 217 217 216 214 214 213 212 213 213
278 277 274 272 270 268 267 266 266 266 267 267 268 269 267 263 256 250 244 243 241 238 236 237 240 242 246 248 247 252 256 258 265 270 264 251 244 240 238 239 237 236 237 240 244 247 249 245 245 247 236 223 208 203 204 204 204 204 203 206 208 213 218 218 216 214 212 211 211 210 210 209 210 210 212 215 218 220 221 221 220 220 219 218 218
277 278 277 274 273 271 269 267 266 265 264 264 265 264 260 254 247 241 238 238 238 237 235 234 236 237 241 247 250 253 256 258 261 260 255 247 242 242 241 240 240 237 233 235 239 243 249 251 248 246 236 225 212 203 204 204 204 206 205 205 207 211 216 218 218 216 215 214 213 212 212 211 210 209 210 212 215 218 222 224 225 225 225 224 222
277 279 278 274 272 270 268 265 264 265 264 263 263 260 255 248 240 235 234 234 236 236 234 234 236 236 238 244 248 252 255 257 257 254 251 246 241 242 243 242 242 238 235 234 235 235 240 247 250 250 245 230 216 204 204 205 204 208 208 206 207 210 214 216 217 217 216 216 216 214 214 213 212 211 210 211 213 215 219 222 224 225 226 227 226
280 282 279 274 270 268 266 263 261 262 263 263 261 257 252 245 236 231 231 233 234 233 233 233 234 236 239 243 246 248 251 254 256 256 252 246 244 245 246 248 247 243 239 235 235 233 233 238 244 249 251 240 221 209 205 206 206 208 210 209 208 211 213 215 217 217 218 218 218 217 217 215 214 213 213 213 214 216 218 220 222 223 225 227 228
283 283 281 274 268 266 265 262 259 259 261 261 258 255 250 244 234 229 230 231 232 231 229 230 232 236 239 243 246 247 249 248 248 251 252 252 252 252 253 254 253 251 246 240 238 236 233 233 236 242 248 247 233 217 207 206 210 210 211 211 211 212 214 216 217 218 219 220 221 221 220 218 217 216 216 216 218 219 221 223 224 225 225 225 227
284 283 281 275 267 264 265 264 261 259 259 258 254 252 247 241 234 229 229 230 231 230 228 228 231 235 239 243 245 246 247 247 245 247 251 255 257 259 259 259 258 258 255 249 243 240 235 232 233 237 243 246 243 231 214 207 210 213 213 213 213 213 213 216 219 219 220 221 223 223 222 221 220 219 219 220 222 224 226 228 229 230 230 229 228
283 281 279 272 263 260 262 262 260 257 256 254 251 248 244 239 234 230 229 231 232 231 230 230 232 235 239 245 250 251 250 250 249 248 250 255 259 261 262 263 265 264 262 256 248 243 238 233 231 233 238 243 245 242 227 212 210 214 216 215 215 216 214 215 218 220 221 222 225 225 225 224 223 222 222 223 225 227 229 231 233 235 235 235 233
280 278 274 266 258 257 260 260 258 256 254 252 249 246 242 237 234 231 230 230 232 232 233 234 235 239 243 248 255 258 257 256 255 254 254 256 259 261 263 266 267 268 266 259 251 244 241 236 231 230 233 239 244 246 239 225 215 213 217 218 217 218 218 216 217 219 221 223 225 226 226 226 226 226 225 225 227 229 231 233 234 236 237 238 237
276 273 269 263 256 255 256 258 258 256 253 249 246 243 240 237 234 232 230 230 231 232 234 237 240 244 248 252 257 260 260 259 259 258 258 257 258 260 262 263 265 268 266 261 254 245 242 239 234 231 231 234 239 243 244 237 225 217 216 219 220 221 220 219 219 220 222 224 226 227 228 229 229 229 229 229 229 230 232 234 235 236 237 238 239
272 270 267 262 256 253 253 254 255 254 252 248 244 240 238 237 235 233 230 231 232 234 237 240 244 248 251 255 258 260 261 262 261 259 258 257 258 260 261 260 262 264 260 258 258 250 244 240 237 235 234 233 234 238 242 239 230 223 219 219 223 225 223 223 222 221 223 225 227 229 230 230 231 231 232 232 232 232 233 234 235 236 237 238 239
270 269 267 264 260 256 254 253 252 252 252 250 247 242 238 237 236 234 231 231 234 237 241 244 248 251 253 256 258 259 261 261 261 260 258 257 258 260 260 259 260 260 257 258 260 256 249 244 243 241 239 237 235 236 238 236 231 226 222 220 223 227 227 226 225 225 225 227 229 231 232 232 232 232 232 233 234 234 235 235 235 236 237 238 238
267 267 267 266 264 260 256 253 251 252 252 251 250 247 242 238 235 234 233 234 237 240 243 248 252 254 256 257 257 258 259 259 260 259 257 255 256 258 259 259 259 258 259 262 264 260 253 248 247 245 243 241 237 236 235 234 229 223 222 222 222 226 229 228 228 228 228 228 229 230 232 234 233 233 232 232 233 235 236 236 236 237 237 238 238
265 265 266 266 265 263 258 254 251 251 252 251 251 250 246 241 236 234 234 235 239 243 246 250 254 255 257 257 257 256 256 257 257 258 256 253 253 255 257 260 260 260 260 263 264 260 254 250 249 247 245 242 239 239 236 235 231 223 221 222 222 224 228 230 229 229 229 229 230 230 231 233 234 234 234 234 234 235 236 237 237 238 239 239 239
264 265 265 265 264 263 259 255 252 251 250 251 251 250 248 244 239 235 235 237 241 246 249 253 256 256 257 257 257 256 254 255 255 255 255 253 253 254 257 260 262 263 263 264 263 260 257 254 252 250 249 246 243 242 241 240 236 225 222 225 225 223 224 228 230 230 231 231 231 232 232 233 235 236 236 236 236 236 236 237 238 239 239 239 240
265 265 265 264 263 263 260 256 253 251 250 250 250 249 248 245 241 238 238 240 244 248 252 255 257 257 256 255 255 256 254 254 253 254 254 254 254 255 258 261 263 263 262 261 259 259 259 257 254 253 251 248 245 243 243 243 237 225 223 226 230 229 224 225 229 231 231 231 231 232 233 234 235 237 238 237 238 238 238 238 239 240 240 241 241
266 266 265 264 264 264 261 257 254 252 250 250 250 250 248 246 244 242 242 245 248 251 254 257 259 258 256 255 256 256 255 254 254 254 255 256 257 257 259 260 261 261 261 261 257 255 257 258 256 254 253 251 247 243 240 240 236 229 226 226 230 233 230 225 227 229 231 231 231 232 233 234 235 236 238 239 239 239 239 239 240 241 242 243 243
265 265 266 266 266 265 263 259 255 252 250 250 251 251 250 248 248 248 249 250 253 256 258 259 260 259 258 257 257 257 256 255 255 255 256 257 258 258 259 259 260 261 262 261 258 255 255 256 255 255 256 253 249 245 238 237 238 235 233 230 229 233 233 229 226 227 228 230 231 232 232 233 234 235 237 239 240 240 240 239 240 242 244 245 245
264 265 267 267 267 267 265 262 258 255 252 251 252 253 253 251 251 252 252 254 255 258 259 260 259 259 258 257 257 257 257 256 256 257 258 258 258 259 260 260 261 261 260 261 261 259 257 256 255 256 257 254 251 246 240 239 243 242 239 235 232 234 236 234 230 228 227 228 231 233 234 234 234 234 235 238 240 242 242 242 241 242 244 246 247
265 266 267 267 267 267 266 265 262 258 255 253 252 253 254 253 252 252 253 254 256 257 258 258 258 258 257 257 256 256 257 257 258 259 259 260 260 260 261 261 262 262 262 262 262 261 259 257 258 257 257 258 255 248 244 245 246 244 243 241 237 235 236 236 234 233 231 229 229 232 233 234 235 236 236 237 239 241 243 244 244 244 245 247 248
267 268 268 268 267 267 266 266 264 261 259 257 255 255 254 254 253 253 253 254 255 256 257 257 257 257 256 256 256 256 257 258 259 259 260 262 262 262 263 263 264 264 264 263 263 262 260 260 261 259 258 261 261 256 252 253 250 245 248 250 245 239 235 235 235 235 234 231 230 231 232 233 235 236 236 237 239 241 243 244 246 247 247 247 248
269 270 269 269 268 267 266 265 265 264 263 262 260 259 257 255 254 253 254 254 255 255 256 256 256 256 255 255 256 256 257 258 259 260 260 262 263 264 265 266 266 266 265 263 263 264 263 261 262 261 261 260 261 261 260 260 256 250 251 253 250 241 233 232 233 234 233 232 232 232 232 233 234 236 237 237 239 241 242 243 245 246 246 245 246
267 268 268 268 268 267 265 263 264 264 263 263 261 260 260 259 257 255 255 255 255 255 255 255 255 254 254 255 256 256 257 258 258 259 260 261 263 264 265 267 267 267 266 264 263 263 263 262 261 261 262 260 259 261 262 264 261 255 253 252 251 245 232 230 234 233 231 231 233 235 234 235 236 237 238 238 239 241 242 243 244 244 244 244 244
264 265 266 266 267 267 265 263 262 262 262 262 261 259 260 260 260 258 257 256 255 255 254 254 253 253 253 254 255 256 257 258 258 259 260 261 263 264 264 265 266 267 267 266 264 263 262 262 261 260 260 260 259 259 260 263 264 259 258 259 261 256 240 236 239 237 233 230 230 231 231 232 237 239 240 242 241 242 243 244 245 244 244 244 244
261 263 264 265 265 266 266 264 262 262 261 260 259 259 260 261 260 259 257 255 254 252 252 252 252 253 254 255 257 258 259 259 260 260 261 262 263 264 264 264 264 264 265 266 265 263 262 261 260 259 258 258 258 257 257 259 261 260 259 261 265 264 254 247 244 239 234 229 226 227 226 226 230 234 238 242 242 243 244 244 246 246 247 247 246
258 260 262 264 265 266 267 266 264 263 262 261 259 258 259 260 259 257 255 252 251 250 249 250 251 253 255 258 260 261 262 262 262 262 262 262 263 263 263 263 263 263 263 264 264 262 261 260 259 258 257 257 256 256 255 255 257 258 259 261 264 266 263 258 251 241 233 224 220 223 227 229 231 232 235 240 242 243 245 245 247 249 250 250 249
257 258 260 263 266 267 267 266 264 264 265 264 262 259 258 258 257 256 253 251 249 248 249 250 251 253 255 257 259 261 262 263 263 264 263 263 263 262 262 261 261 262 263 264 265 264 261 260 259 258 257 257 256 254 252 252 253 255 257 260 262 263 264 264 263 258 251 234 217 215 221 228 235 238 239 242 245 247 248 247 248 250 253 253 252
256 256 258 261 264 266 266 262 260 262 264 266 264 260 257 256 255 254 252 251 249 249 249 251 252 254 256 256 258 259 261 264 266 266 265 264 263 262 261 260 259 260 262 264 266 266 263 260 258 258 257 257 256 254 252 250 250 252 254 257 259 261 262 264 266 265 263 256 236 222 217 219 231 242 244 246 251 252 252 250 250 252 255 255 253
256 257 258 259 262 265 262 257 258 260 262 264 264 261 257 254 253 253 252 251 251 251 252 253 254 255 257 257 258 259 260 263 265 267 266 265 263 262 261 259 258 258 260 262 265 266 265 262 258 257 256 256 257 256 254 251 250 250 251 254 256 257 259 261 264 266 266 264 258 246 234 224 225 234 239 246 253 253 251 250 250 253 255 255 252